Showing default

BRO-6, 52422

Orbit data source: Space-Track

BRO-6, 52422 is a payload satellite owned by Unseen Labs (FR) in SSO that was launched on Mon, 02 May 2022 UTC via an ELECTRON launch vehicle from the Rocket Lab Launch Complex (RLLC). Payload-class satellites include a variety of spacecraft equipped with specific instruments for various scientific and technological missions. These include communications satellites like Starlink; space stations such as the ISS; scientific satellites like the Hubble; Earth observation satellites from companies like Planet Labs, Umbra, and HawkEye 360; GPS; miniature CubeSats for education and research; and military/defense satellites.

Loading next visibility...
Identifier
52422, 2022-047AE
Orbit
SSO
Country
Flag of FRFR
Related business
Manufacturer
GOMSpace
Mission
Operational Commercial Sigint
Bus & Motor
CUBESAT 6U, Unknown motor
Mass
10 kg wet, ~10 kg dry
Launch date (UTC)
2022-05-02 (4 years ago)
Launch vehicle
ELECTRON
Launch site
Rocket Lab Launch Complex (RLLC)
Object type
Payload
Rocket body
Debris
Shape & HBR
Box, 0.1 m
Radar Cross Section
0.080 m², Medium (>0.1 m² and < 1m²)

Expand to show TLE details & history
Last TLE update: 8 hours ago

TLE from 8 hours ago
0 BRO-6
1 52422U 22047AE  25312.81902750  .00018890  00000-0  47299-3 0  9995
2 52422  97.3561  36.4510 0005808 138.9158 221.2526 15.40112512197136
Epoch: 2025-11-08T19:39Z
TLE epoch observation values (Epoch: 2025-11-08T19:39:23.975Z)
Latitude
-0.00004°
Longitude
53.35793°
Altitude
451.877 km
Speed
7.64 km/s
True Right ascension
02h 25m 48s
True Declination
0° 00' 00"
Sunlit
Object was in full shadow at epoch
Visualization orbit readout
Latitude
Unknown
Longitude
Unknown
Altitude
Unknown
Speed
Unknown
Apparent Right ascension
Unknown
Apparent Declination
Unknown
Sunlit
N/A
Visualization observer readout
Local Sidereal Time
23:49:19
Azimuth
Unknown
Elevation
Unknown
Doppler factor
Unknown
Orbital elements
Apogee altitude
446.675 km
Perigee altitude
438.752 km
Semi-major axis
6,820.851 km
Eccentricity
0.00058
Inclination
97.3561°
RAAN
36.451°
Arg. of periapsis
138.9158°
True anomaly
221.20874°
Mean anomaly
221.2526°
Eccentric anomaly
221.23067°
Mean motion
3.85288 °/min
Orbital period
93.44 mins
BSTAR
0.00047299
Loading maneuver chart data...
Computing Atmospheric mass density...

Documentation

Showing up to 5 results
|